User: anonymous   Login
Location: Blue Mountain Vista Observatory
(40.6992°N, 75.9422°W)
Time: 05:57:10
(UTC-04:00)
Language:

IDEFIX/ARIANE 42P - Orbit

View from above orbital plane
View from above orbital plane
View from above satellite
View from above satellite

Ground track
Ground track

The orbit data is extracted from the following two-line orbital elements,

1 27422U 02021B   16177.12354572 -.00000023  00000-0  70207-5 0  9990
2 27422  98.2296 191.2085 0011603 209.7796 150.2728 14.29245602735670
Epoch (UTC): 25 June 2016 02:57:54
Eccentricity: 0.0011603
inclination: 98.2296°
perigee height: 786 km
apogee height: 802 km
right ascension of ascending node: 191.2085°
argument of perigee: 209.7796°
revolutions per day: 14.29245602
mean anomaly at epoch: 150.2728°
orbit number at epoch: 73567

The dashed part of the orbit path shows where the satellite is in the earth's shadow,  

DLR